Latest Coastal Weather Observations for Northern Endeavour (near 10.5S 126E)

IDD60701

Issued at 5:21 am CST Wednesday 1 July 2015 (issued every 10 minutes, with the page automatically refreshed every 10 minutes)

About coastal observations | Map of coastal stations | Coastal observations for NT | Marine services | Other Formats
Station Details ID: 200212 Name: NORTHERN ENDEAVOUR Lat: -10.61 Lon: 125.98 Height: 16.0 m
Data from the previous 72 hours. | See also: Recent months for locations in Northern Territory
Date/Time
CST
Temp

°C
Wind Pressure Rain
since 9am
mm
Weather Cloud Vis
km
Sea
Height
m
Swell
Dir
 
Speed
knots
Gust
knots
hPa Trend Height
m
Period
s
Dir
01/05:10am 27.3 SE 12 15 1016.4 - - - - 10 - - - -
01/05:00am 26.7 SE 11 14 1016.4 - - - - 10 - - - -
01/04:50am 26.6 SE 14 13 1016.6 - - - - 10 - - - -
01/04:40am 26.6 SE 14 17 1016.6 - - - - 10 - - - -
01/04:30am 26.6 SE 14 16 1016.5 - - - - 10 - - - -
01/04:20am 26.6 SE 15 16 1016.5 - - - - 10 - - - -
01/04:10am 26.7 SE 15 17 1016.6 - - - - 10 - - - -
01/04:00am 26.6 SE 15 16 1016.7 - - - - 10 - - - -
01/03:50am 26.6 SE 15 17 1016.7 - - - - 10 - - - -
01/03:40am 26.6 SE 15 17 1016.8 - - - - 10 - - - -
01/03:30am 26.6 SE 16 17 1016.9 - - - - 10 - - - -
01/03:20am 26.6 SE 15 16 1016.9 - - - - 10 - - - -
01/03:10am 26.7 SE 16 17 1017.0 - - - - 10 - - - -
01/03:00am 26.6 SE 16 18 1017.0 - - - - 10 - - - -
01/02:50am 26.7 ESE 16 18 1017.1 - - - - 10 - - - -
01/02:40am 26.8 ESE 16 17 1017.2 - - - - 10 - - - -
01/02:30am 26.7 SE 17 19 1017.2 - - - - 10 - - - -
01/02:20am 26.6 SE 17 19 1017.1 - - - - 10 - - - -
01/02:10am 26.7 SE 18 20 1017.0 - - - - 10 - - - -
01/02:00am 26.6 SE 17 21 1017.1 - - - Partly cloudy 10 - - - -
01/01:50am 26.6 SE 16 19 1017.2 - - - Partly cloudy 10 - - - -
01/01:40am 26.6 SE 17 17 1017.2 - - - Partly cloudy 10 - - - -
01/01:30am 26.6 SE 17 18 1017.3 - - - - 10 - - - -
01/01:20am 26.6 SE 16 20 1017.3 - - - - 10 - - - -
01/01:10am 26.7 SE 17 17 1017.2 - - - - 10 - - - -
01/01:00am 26.6 SE 17 19 1017.2 - - - Partly cloudy 10 - - - -
01/12:50am 26.6 SE 16 19 1017.1 - - - Partly cloudy 10 - - - -
01/12:40am 26.6 SE 17 18 1017.1 - - - Partly cloudy 10 - - - -
01/12:30am 26.6 SE 16 18 1017.0 - - - Partly cloudy 10 - - - -
01/12:20am 26.6 SE 16 17 1017.0 - - - - 10 - - - -
01/12:10am 26.7 SE 16 17 1017.0 - - - - 10 - - - -
01/12:00am 26.6 SE 16 17 1016.9 - - - - 10 - - - -
 
Date/Time
CST
Temp

°C
Wind Pressure Rain
since 9am
mm
Weather Cloud Vis
km
Sea
Height
m
Swell
Dir
 
Speed
knots
Gust
knots
hPa Trend Height
m
Period
s
Dir
30/11:50pm 26.7 SE 16 17 1016.8 - - - - 10 - - - -
30/11:40pm 26.6 SE 15 18 1017.0 - - - - 10 - - - -
30/11:30pm 26.6 SE 15 14 1017.1 - - - - 10 - - - -
30/11:20pm 26.7 SE 15 17 1017.1 - - - - 10 - - - -
30/11:10pm 26.8 SE 15 16 1017.1 - - - - 10 - - - -
30/11:00pm 26.7 SE 16 18 1017.2 - - - - 10 - - - -
30/10:50pm 26.7 SE 16 19 1017.2 - - - - 10 - - - -
30/10:40pm 26.7 SE 16 17 1017.3 - - - - 10 - - - -
30/10:30pm 26.8 SE 15 18 1017.3 - - - Partly cloudy 10 - - - -
30/10:20pm 26.9 SE 16 19 1017.2 - - - Partly cloudy 10 - - - -
30/10:10pm 26.8 SE 16 17 1017.2 - - - Partly cloudy 10 - - - -
30/10:00pm 26.8 SE 16 18 1017.2 - - - Partly cloudy 10 - - - -
30/09:50pm 26.9 SE 17 18 1017.2 - - - Partly cloudy 10 - - - -
30/09:40pm 26.9 SE 16 17 1017.1 - - - Partly cloudy 10 - - - -
30/09:30pm 26.8 SE 17 18 1017.0 - - - Partly cloudy 10 - - - -
30/09:20pm 27.0 SE 16 18 1016.9 - - - Partly cloudy 10 - - - -
30/09:10pm 27.0 SE 15 19 1016.8 - - - Partly cloudy 10 - - - -
30/09:00pm 27.1 SE 15 16 1016.8 - - - Partly cloudy 10 - - - -
30/08:50pm 27.0 SE 15 17 1016.6 - - - - 10 - - - -
30/08:40pm 27.0 SE 15 16 1016.5 - - - Partly cloudy 10 - - - -
30/08:30pm 27.2 SE 15 15 1016.3 - - - Partly cloudy 10 - - - -
30/08:20pm 27.1 SE 15 18 1016.1 - - - Partly cloudy 10 - - - -
30/08:10pm 27.1 SE 15 15 1015.9 - - - Partly cloudy 10 - - - -
30/08:00pm 27.1 SE 15 17 1015.7 - - - Partly cloudy 10 - - - -
30/07:50pm 27.2 SE 15 18 1015.6 - - - Partly cloudy 10 - - - -
30/07:40pm 27.3 SE 15 16 1015.5 - - - Partly cloudy 10 - - - -
30/07:30pm 27.4 SE 15 19 1015.3 - - - Partly cloudy 10 - - - -
30/07:20pm 27.4 SE 15 15 1015.3 - - - Partly cloudy 10 - - - -
30/07:10pm 27.6 SE 14 17 1015.2 - - - Partly cloudy 10 - - - -
30/07:00pm 27.6 SE 14 14 1015.1 - - - Partly cloudy 10 - - - -
30/06:50pm 27.8 SE 13 15 1015.1 - - - Partly cloudy 10 - - - -
30/06:40pm 28.3 SE 13 13 1015.0 - - - Partly cloudy 10 - - - -
30/06:30pm 28.1 SE 13 12 1014.8 - - - Partly cloudy 10 - - - -
30/06:20pm 28.4 SE 13 14 1014.7 - - - Partly cloudy 10 - - - -
30/06:10pm 28.9 SE 12 15 1014.6 - - - Partly cloudy 10 - - - -
30/06:00pm 29.2 SE 11 13 1014.7 - - - Partly cloudy 10 - - - -
30/05:50pm 30.1 SE 11 12 1014.5 - - - Partly cloudy 10 - - - -
30/05:40pm 30.1 SE 12 12 1014.5 - - - Partly cloudy 10 - - - -
30/05:30pm 30.6 SE 11 13 1014.3 - - - Partly cloudy 10 - - - -
30/05:20pm 30.6 SE 11 12 1014.2 - - - - 10 - - - -
30/05:10pm 30.5 SE 11 12 1014.2 - - - Partly cloudy 10 - - - -
30/05:00pm 30.5 SSE 12 10 1014.2 - - - Partly cloudy 10 - - - -
30/04:50pm 30.5 SE 11 12 1014.2 - - - Partly cloudy 10 - - - -
30/04:40pm 30.1 SE 11 12 1014.2 - - - - 10 - - - -
30/04:30pm 30.1 SE 11 12 1014.2 - - - - 10 - - - -
30/04:20pm 30.7 SSE 11 13 1014.3 - - - Partly cloudy 10 - - - -
30/04:10pm 30.9 SSE 11 12 1014.2 - - - - 10 - - - -
30/04:00pm 30.8 SE 11 12 1014.2 - - - - 10 - - - -
30/03:50pm 30.1 SE 10 13 1014.2 - - - - 10 - - - -
30/03:40pm 30.7 SE 10 13 1014.2 - - - - 10 - - - -
30/03:30pm 29.4 SE 10 12 1014.3 - - - - 10 - - - -
30/03:20pm 29.6 SE 11 11 1014.3 - - - - 10 - - - -
30/03:10pm 30.7 SSE 10 11 1014.4 - - - - 10 - - - -
30/03:00pm 30.2 SSE 11 12 1014.4 - - - - 10 - - - -
30/02:50pm 30.4 SSE 10 12 1014.5 - - - - 10 - - - -
30/02:40pm 30.1 SSE 10 12 1014.6 - - - - 10 - - - -
30/02:30pm 30.8 SSE 11 12 1014.8 - - - - 10 - - - -
30/02:20pm 29.5 SSE 10 11 1015.0 - - - - 10 - - - -
30/02:10pm 30.3 SSE 10 11 1015.1 - - - - 10 - - - -
30/02:00pm 30.2 S 10 11 1015.2 - - - - 10 - - - -
30/01:50pm 30.7 SSE 10 11 1015.4 - - - - 10 - - - -
30/01:40pm 29.3 SSE 9 11 1015.5 - - - - 10 - - - -
30/01:30pm 30.4 SSE 10 12 1015.6 - - - - 10 - - - -
30/01:20pm 30.1 SSE 10 11 1015.8 - - - - 10 - - - -
30/01:10pm 29.7 SSE 9 9 1015.8 - - - - 10 - - - -
30/01:00pm 29.3 SSE 10 12 1016.0 - - - - 10 - - - -
30/12:50pm 29.2 SSE 11 11 1016.1 - - - - 10 - - - -
30/12:40pm 30.1 SSE 11 11 1016.3 - - - - 10 - - - -
30/12:30pm 30.1 SSE 10 12 1016.4 - - - - 10 - - - -
30/12:20pm 29.6 SSE 9 9 1016.5 - - - - 10 - - - -
30/12:10pm 30.5 SSE 8 10 1016.6 - - - - 10 - - - -
30/12:00pm 30.3 SSE 7 11 1016.7 - - - - 10 - - - -
30/11:50am 30.1 SSE 6 10 1016.9 - - - Partly cloudy 10 - - - -
30/11:40am 29.9 SSE 6 6 1017.1 - - - - 10 - - - -
30/11:30am 29.0 SSE 6 7 1017.2 - - - Partly cloudy 10 - - - -
30/11:20am 28.8 SSE 5 6 1017.2 - - - - 10 - - - -
30/11:10am 29.1 SE 5 6 1017.3 - - - Partly cloudy 10 - - - -
30/11:00am 28.1 SE 6 6 1017.4 - - - Partly cloudy 10 - - - -
30/10:50am 28.4 SE 6 7 1017.3 - - - Partly cloudy 10 - - - -
30/10:40am 28.3 SE 7 8 1017.5 - - - - 10 - - - -
30/10:30am 28.6 SE 7 8 1017.5 - - - Partly cloudy 10 - - - -
30/10:20am 29.0 SE 7 7 1017.6 - - - Partly cloudy 10 - - - -
30/10:10am 28.4 SE 6 9 1017.5 - - - Partly cloudy 10 - - - -
30/10:00am 28.9 SE 6 7 1017.6 - - - Partly cloudy 10 - - - -
30/09:50am 28.4 SE 6 8 1017.5 - - - Partly cloudy 10 - - - -
30/09:40am 28.5 SE 6 6 1017.4 - - - Partly cloudy 10 - - - -
30/09:30am 28.8 SE 5 7 1017.4 - - - - 10 - - - -
30/09:20am 28.9 SE 5 8 1017.3 - - - - 10 - - - -
30/09:10am 29.0 SE 3 4 1017.2 - - - - 10 - - - -
30/09:00am 28.7 SE 3 4 1017.1 - - - - 10 - - - -
30/08:50am 29.0 SE 3 4 1016.9 - - - - 10 - - - -
30/08:40am 28.6 SE 5 5 1016.7 - - - - 10 - - - -
30/08:30am 28.5 SE 5 7 1016.6 - - - - 10 - - - -
30/08:20am 28.2 SE 4 9 1016.6 - - - - 10 - - - -
30/08:10am 27.6 SE 5 8 1016.5 - - - - 10 - - - -
30/08:00am 27.3 SE 6 7 1016.5 - - - - 10 - - - -
30/07:50am 26.9 SE 7 9 1016.5 - - - - 10 - - - -
30/07:40am 26.4 SE 8 11 1016.5 - - - - 10 - - - -
30/07:30am 26.2 SE 8 11 1016.4 - - - - 10 - - - -
30/07:20am 26.2 SE 9 10 1016.4 - - - - 10 - - - -
30/07:10am 26.0 SE 8 11 1016.3 - - - - 10 - - - -
30/07:00am 26.1 SE 8 10 1016.3 - - - - 10 - - - -
30/06:50am 26.0 SE 8 9 1016.3 - - - - 10 - - - -
30/06:40am 26.1 SE 8 10 1016.2 - - - - 10 - - - -
30/06:30am 26.0 ESE 8 8 1016.2 - - - - 10 - - - -
30/06:20am 25.9 ESE 8 8 1016.1 - - - - 10 - - - -
30/06:10am 25.9 ESE 8 10 1016.1 - - - - 10 - - - -
30/06:00am 25.9 ESE 8 8 1016.1 - - - - 10 - - - -
30/05:50am 25.8 ESE 8 9 1016.0 - - - - 10 - - - -
30/05:40am 26.1 SE 8 9 1016.1 - - - Partly cloudy 10 - - - -
30/05:30am 26.0 ESE 8 10 1016.1 - - - Partly cloudy 10 - - - -
30/05:20am 25.9 ESE 8 9 1016.0 - - - Partly cloudy 10 - - - -
30/05:10am 25.9 ESE 7 8 1016.0 - - - - 10 - - - -
30/05:00am 25.9 ESE 9 9 1016.1 - - - - 10 - - - -
30/04:50am 25.9 ESE 8 9 1016.1 - - - - 10 - - - -
30/04:40am 25.9 ESE 8 8 1016.1 - - - Partly cloudy 10 - - - -
30/04:30am 25.8 SE 8 8 1016.2 - - - - 10 - - - -
30/04:20am 26.0 SE 8 11 1016.1 - - - - 10 - - - -
30/04:10am 25.7 SE 8 8 1016.2 - - - - 10 - - - -
30/04:00am 25.9 SE 8 8 1016.3 - - - - 10 - - - -
30/03:50am 25.8 SE 8 11 1016.3 - - - - 10 - - - -
30/03:40am 25.8 SE 8 7 1016.3 - - - - 10 - - - -
30/03:30am 25.6 SE 8 7 1016.3 - - - - 10 - - - -
30/03:20am 25.8 SE 7 10 1016.4 - - - - 10 - - - -
30/03:10am 25.8 SSE 8 11 1016.4 - - - - 10 - - - -
30/03:00am 25.9 SSE 8 7 1016.3 - - - - 10 - - - -
30/02:50am 25.9 SE 8 9 1016.4 - - - - 10 - - - -
30/02:40am 25.9 SSE 8 9 1016.6 - - - - 10 - - - -
30/02:30am 26.0 SSE 9 11 1016.6 - - - - 10 - - - -
30/02:20am 26.0 SE 8 11 1016.7 - - - - 10 - - - -
30/02:10am 25.8 SE 7 9 1016.8 - - - - 10 - - - -
30/02:00am 25.9 SSE 8 9 1016.8 - - - - 10 - - - -
30/01:50am 26.0 SSE 9 11 1016.9 - - - - 10 - - - -
30/01:40am 25.8 SSE 9 11 1016.9 - - - - 10 - - - -
30/01:30am 25.9 SSE 10 11 1017.0 - - - Partly cloudy 10 - - - -
30/01:20am 25.9 SSE 10 11 1017.0 - - - Partly cloudy 10 - - - -
30/01:10am 26.1 SSE 10 13 1017.0 - - - Partly cloudy 10 - - - -
30/01:00am 25.8 SE 10 9 1017.0 - - - Partly cloudy 10 - - - -
30/12:50am 25.9 SSE 9 11 1017.0 - - - Partly cloudy 10 - - - -
30/12:40am 25.9 SSE 10 11 1017.0 - - - Partly cloudy 10 - - - -
30/12:30am 25.8 SE 10 13 1017.0 - - - Partly cloudy 10 - - - -
30/12:20am 25.9 SSE 11 11 1017.0 - - - Partly cloudy 10 - - - -
30/12:10am 26.0 SSE 11 12 1016.9 - - - Partly cloudy 10 - - - -
30/12:00am 25.9 SE 10 11 1016.9 - - - Partly cloudy 10 - - - -
 
Date/Time
CST
Temp

°C
Wind Pressure Rain
since 9am
mm
Weather Cloud Vis
km
Sea
Height
m
Swell
Dir
 
Speed
knots
Gust
knots
hPa Trend Height
m
Period
s
Dir
29/11:50pm 25.9 SE 11 12 1016.9 - - - Partly cloudy 10 - - - -
29/11:40pm 26.1 SSE 11 12 1016.9 - - - - 10 - - - -
29/11:30pm 25.9 SE 10 12 1016.8 - - - - 10 - - - -
29/11:20pm 26.0 SE 10 11 1016.8 - - - - 10 - - - -
29/11:10pm 26.0 SE 11 12 1016.7 - - - - 10 - - - -
29/11:00pm 26.0 SSE 11 11 1016.6 - - - - 10 - - - -
29/10:50pm 26.1 SSE 10 13 1016.7 - - - - 10 - - - -
29/10:40pm 26.0 SSE 10 10 1016.5 - - - - 10 - - - -
29/10:30pm 25.9 SSE 10 12 1016.5 - - - - 10 - - - -
29/10:20pm 25.9 SE 8 10 1016.5 - - - - 10 - - - -
29/10:10pm 25.9 SSE 10 12 1016.5 - - - Partly cloudy 10 - - - -
29/10:00pm 26.1 SSE 11 13 1016.5 - - - - 10 - - - -
29/09:50pm 25.9 SSE 10 13 1016.5 - - - Partly cloudy 10 - - - -
29/09:40pm 26.1 SSE 11 12 1016.4 - - - - 10 - - - -
29/09:30pm 26.1 SSE 10 11 1016.3 - - - Partly cloudy 10 - - - -
29/09:20pm 26.1 SSE 10 13 1016.2 - - - - 10 - - - -
29/09:10pm 26.2 SSE 9 12 1016.1 - - - - 10 - - - -
29/09:00pm 26.1 SSE 9 8 1016.0 - - - - 10 - - - -
29/08:50pm 26.1 SSE 10 11 1015.9 - - - - 10 - - - -
29/08:40pm 26.1 SSE 9 12 1015.8 - - - - 10 - - - -
29/08:30pm 26.1 SSE 9 11 1015.8 - - - - 10 - - - -
29/08:20pm 26.1 SE 10 11 1015.7 - - - - 10 - - - -
29/08:10pm 26.3 SSE 10 12 1015.6 - - - - 10 - - - -
29/08:00pm 26.3 SSE 10 12 1015.4 - - - - 10 - - - -
29/07:50pm 26.4 SSE 9 9 1015.4 - - - - 10 - - - -
29/07:40pm 26.4 SSE 10 11 1015.2 - - - - 10 - - - -
29/07:30pm 26.5 SSE 9 11 1015.1 - - - - 10 - - - -
29/07:20pm 26.7 SE 10 12 1015.1 - - - Partly cloudy 10 - - - -
29/07:10pm 26.5 SE 10 10 1015.0 - - - Partly cloudy 10 - - - -
29/07:00pm 26.7 SE 10 13 1014.9 - - - Partly cloudy 10 - - - -
29/06:50pm 27.0 SE 10 11 1014.8 - - - - 10 - - - -
29/06:40pm 28.1 SE 10 11 1014.8 - - - Partly cloudy 10 - - - -
29/06:30pm 28.6 SSE 11 11 1014.7 - - - Partly cloudy 10 - - - -
29/06:20pm 28.2 SSE 11 12 1014.5 - - - Partly cloudy 10 - - - -
29/06:10pm 28.6 SE 10 10 1014.5 - - - Partly cloudy 10 - - - -
29/06:00pm 28.8 SSE 11 13 1014.4 - - - Partly cloudy 10 - - - -
29/05:50pm 28.4 SSE 11 13 1014.3 - - - Partly cloudy 10 - - - -
29/05:40pm 29.8 SSE 11 10 1014.2 - - - - 10 - - - -
29/05:30pm 29.4 SE 11 13 1014.2 - - - - 10 - - - -
29/05:20pm 29.5 SSE 12 13 1014.2 - - - Partly cloudy 10 - - - -
29/05:10pm 29.6 SSE 12 12 1014.2 - - - Partly cloudy 10 - - - -
29/05:00pm 30.0 SSE 11 14 1014.1 - - - Partly cloudy 10 - - - -
29/04:50pm 29.9 SE 9 11 1014.0 - - - - 10 - - - -
29/04:40pm 30.2 SSE 10 10 1014.1 - - - - 10 - - - -
29/04:30pm 30.1 SSE 10 10 1014.1 - - - - 10 - - - -
29/04:20pm 29.6 SE 10 10 1014.1 - - - - 10 - - - -
29/04:10pm 30.1 SE 9 11 1014.0 - - - - 10 - - - -
29/04:00pm 30.5 SE 9 9 1014.2 - - - - 10 - - - -
29/03:50pm 30.3 SSE 9 10 1014.2 - - - - 10 - - - -
29/03:40pm 29.6 SSE 9 11 1014.3 - - - - 10 - - - -
29/03:30pm 30.2 SSE 9 11 1014.4 - - - - 10 - - - -
29/03:20pm 30.6 SSE 9 10 1014.5 - - - - 10 - - - -
29/03:10pm 30.3 SSE 10 11 1014.5 - - - - 10 - - - -
29/03:00pm 29.9 SSE 10 10 1014.6 - - - - 10 - - - -
29/02:50pm 30.6 SSE 10 11 1014.8 - - - - 10 - - - -
29/02:40pm 29.8 SSE 9 10 1014.9 - - - - 10 - - - -
29/02:30pm 30.0 SSE 9 11 1015.1 - - - - 10 - - - -
29/02:20pm 30.0 SSE 9 11 1015.3 - - - - 10 - - - -
29/02:10pm 30.2 SSE 9 9 1015.4 - - - - 10 - - - -
29/02:00pm 29.9 SSE 8 10 1015.5 - - - - 10 - - - -
29/01:50pm 29.2 SE 9 9 1015.6 - - - - 10 - - - -
29/01:40pm 29.8 SSE 9 11 1015.8 - - - - 10 - - - -
29/01:30pm 28.5 SSE 7 10 1015.9 - - - - 10 - - - -
29/01:20pm 29.3 SSE 7 7 1016.1 - - - - 10 - - - -
29/01:10pm 30.0 SSE 8 9 1016.3 - - - - 10 - - - -
29/01:00pm 29.7 SSE 7 9 1016.4 - - - - 10 - - - -
29/12:50pm 30.1 SE 8 10 1016.5 - - - Partly cloudy 10 - - - -
29/12:40pm 29.6 SSE 8 9 1016.6 - - - Partly cloudy 10 - - - -
29/12:30pm 29.1 SSE 8 10 1016.8 - - - Partly cloudy 10 - - - -
29/12:20pm 29.5 SSE 8 10 1016.9 - - - Partly cloudy 10 - - - -
29/12:10pm 29.3 SSE 8 10 1016.9 - - - - 10 - - - -
29/12:00pm 29.6 SSE 8 7 1017.0 - - - - 10 - - - -
29/11:50am 29.6 SSE 8 9 1017.2 - - - - 10 - - - -
29/11:40am 29.6 SSE 8 9 1017.3 - - - - 10 - - - -
29/11:30am 29.6 SSE 7 8 1017.3 - - - - 10 - - - -
29/11:20am 28.9 SSE 8 9 1017.4 - - - - 10 - - - -
29/11:10am 28.5 SSE 7 9 1017.5 - - - - 10 - - - -
29/11:00am 28.8 SSE 8 10 1017.5 - - - Partly cloudy 10 - - - -
29/10:50am 27.9 SE 5 9 1017.5 - - - Partly cloudy 10 - - - -
29/10:40am 27.9 SSE 6 7 1017.6 - - - Partly cloudy 10 - - - -
29/10:30am 27.9 SE 5 7 1017.6 - - - Partly cloudy 10 - - - -
29/10:20am 28.1 ESE 6 6 1017.6 - - - Partly cloudy 10 - - - -
29/10:10am 27.5 E 4 6 1017.6 - - - Partly cloudy 10 - - - -
29/10:00am 26.9 ESE 3 5 1017.8 - - - Partly cloudy 10 - - - -
29/09:50am 27.9 SE 4 4 1017.8 - - - Partly cloudy 10 - - - -
29/09:40am 27.5 ESE 4 6 1017.7 - - - Partly cloudy 10 - - - -
29/09:30am 28.3 SE 6 6 1017.8 - - - Partly cloudy 10 - - - -
29/09:20am 28.3 SE 7 8 1017.8 - - - Partly cloudy 10 - - - -
29/09:10am 28.0 SE 6 8 1017.7 - - - Partly cloudy 10 - - - -
29/09:00am 27.8 SE 8 9 1017.6 - - - Partly cloudy 10 - - - -
29/08:50am 27.9 SE 9 8 1017.4 - - - Partly cloudy 10 - - - -
29/08:40am 27.1 ESE 6 11 1017.4 - - - Partly cloudy 10 - - - -
29/08:30am 27.2 SE 7 6 1017.3 - - - Partly cloudy 10 - - - -
29/08:20am 27.4 ESE 7 7 1017.2 - - - - 10 - - - -
29/08:10am 26.8 ESE 8 7 1017.2 - - - Partly cloudy 10 - - - -
29/08:00am 26.8 ESE 9 10 1017.0 - - - Partly cloudy 10 - - - -
29/07:50am 26.4 ESE 8 9 1016.9 - - - Partly cloudy 10 - - - -
29/07:40am 26.1 ESE 8 11 1016.8 - - - Partly cloudy 10 - - - -
29/07:30am 26.1 ESE 6 8 1016.7 - - - Partly cloudy 10 - - - -
29/07:20am 26.1 ESE 6 8 1016.7 - - - Partly cloudy 10 - - - -
29/07:10am 26.1 ESE 6 8 1016.7 - - - Partly cloudy 10 - - - -
29/07:00am 26.1 ESE 6 7 1016.6 - - - Partly cloudy 10 - - - -
29/06:50am 26.1 ESE 6 9 1016.6 - - - Partly cloudy 10 - - - -
29/06:40am 26.0 ESE 6 6 1016.5 - - - Partly cloudy 10 - - - -
29/06:30am 26.1 ESE 7 7 1016.5 - - - Partly cloudy 10 - - - -
29/06:20am 26.3 ESE 7 7 1016.4 - - - Partly cloudy 10 - - - -
29/06:10am 26.2 ESE 6 7 1016.4 - - - Partly cloudy 10 - - - -
29/06:00am 26.0 E 6 6 1016.4 - - - Partly cloudy 10 - - - -
29/05:50am 26.0 E 6 8 1016.3 - - - Partly cloudy 10 - - - -
29/05:40am 26.0 ESE 7 8 1016.3 - - - Partly cloudy 10 - - - -
29/05:30am 26.1 ESE 7 9 1016.3 - - - Partly cloudy 10 - - - -
29/05:20am 26.1 E 7 9 1016.2 - - - Partly cloudy 10 - - - -
29/05:10am 26.2 ESE 7 9 1016.2 - - - Cloudy 10 - - - -
29/05:00am 26.1 ESE 6 7 1016.2 - - - Cloudy 10 - - - -
29/04:50am 26.2 SE 9 10 1016.3 - - - Cloudy 10 - - - -
29/04:40am 26.3 ESE 10 10 1016.3 - - - Cloudy 10 - - - -
29/04:30am 26.2 ESE 9 12 1016.2 - - - Cloudy 10 - - - -
29/04:20am 26.1 ESE 9 9 1016.3 - - - Cloudy 10 - - - -
29/04:10am 26.2 ESE 10 11 1016.3 - - - Cloudy 10 - - - -
29/04:00am 26.1 ESE 10 12 1016.2 - - - Cloudy 10 - - - -
29/03:50am 26.2 ESE 11 11 1016.2 - - - Partly cloudy 10 - - - -
29/03:40am 26.0 ESE 10 11 1016.3 - - - Partly cloudy 10 - - - -
29/03:30am 26.0 SE 11 12 1016.3 - - - Partly cloudy 10 - - - -
29/03:20am 26.2 ESE 10 13 1016.4 - - - Partly cloudy 10 - - - -
29/03:10am 26.1 ESE 9 12 1016.5 - - - Partly cloudy 10 - - - -
29/03:00am 26.1 SE 11 12 1016.5 - - - Partly cloudy 10 - - - -
29/02:50am 26.1 ESE 10 11 1016.6 - - - Partly cloudy 10 - - - -
29/02:40am 26.3 ESE 10 12 1016.8 - - - Partly cloudy 10 - - - -
29/02:30am 26.1 ESE 9 10 1016.8 - - - Partly cloudy 10 - - - -
29/02:20am 26.1 ESE 11 15 1016.9 - - - Partly cloudy 10 - - - -
29/02:10am 26.2 ESE 11 12 1016.9 - - - Partly cloudy 10 - - - -
29/02:00am 26.2 ESE 11 12 1017.1 - - - Partly cloudy 10 - - - -
29/01:50am 26.2 ESE 10 12 1017.2 - - - Partly cloudy 10 - - - -
29/01:40am 26.1 ESE 10 11 1017.3 - - - Partly cloudy 10 - - - -
29/01:30am 26.1 ESE 9 13 1017.3 - - - Cloudy 10 - - - -
29/01:20am 26.3 ESE 11 14 1017.4 - - - Partly cloudy 10 - - - -
29/01:10am 26.2 ESE 10 12 1017.5 - - - Partly cloudy 10 - - - -
29/01:00am 26.1 ESE 11 12 1017.5 - - - Partly cloudy 10 - - - -
29/12:50am 26.1 ESE 9 12 1017.5 - - - Partly cloudy 10 - - - -
29/12:40am 26.1 ESE 11 10 1017.5 - - - Partly cloudy 10 - - - -
29/12:30am 26.2 SE 13 13 1017.5 - - - Partly cloudy 10 - - - -
29/12:20am 26.1 ESE 11 13 1017.5 - - - Partly cloudy 10 - - - -
29/12:10am 26.1 ESE 12 14 1017.5 - - - Partly cloudy 10 - - - -
29/12:00am 26.2 ESE 13 16 1017.6 - - - Partly cloudy 10 - - - -
 
Date/Time
CST
Temp

°C
Wind Pressure Rain
since 9am
mm
Weather Cloud Vis
km
Sea
Height
m
Swell
Dir
 
Speed
knots
Gust
knots
hPa Trend Height
m
Period
s
Dir
28/11:50pm 26.2 ESE 13 15 1017.7 - - - Partly cloudy 10 - - - -
28/11:40pm 26.1 ESE 10 14 1017.7 - - - Partly cloudy 10 - - - -
28/11:30pm 26.2 SE 13 13 1017.7 - - - Partly cloudy 10 - - - -
28/11:20pm 26.2 ESE 12 11 1017.7 - - - - 10 - - - -
28/11:10pm 26.2 ESE 13 15 1017.7 - - - - 10 - - - -
28/11:00pm 26.3 ESE 13 15 1017.7 - - - - 10 - - - -
28/10:50pm 26.2 SE 13 14 1017.7 - - - - 10 - - - -
28/10:40pm 26.2 ESE 12 14 1017.7 - - - - 10 - - - -
28/10:30pm 26.3 ESE 12 14 1017.7 - - - Partly cloudy 10 - - - -
28/10:20pm 26.2 ESE 10 12 1017.7 - - - - 10 - - - -
28/10:10pm 26.2 ESE 12 13 1017.7 - - - - 10 - - - -
28/10:00pm 26.3 ESE 14 15 1017.6 - - - Partly cloudy 10 - - - -
28/09:50pm 26.4 ESE 12 15 1017.5 - - - Partly cloudy 10 - - - -
28/09:40pm 26.2 ESE 11 14 1017.4 - - - Partly cloudy 10 - - - -
28/09:30pm 26.4 ESE 13 14 1017.4 - - - Partly cloudy 10 - - - -
28/09:20pm 26.5 ESE 12 14 1017.3 - - - Partly cloudy 10 - - - -
28/09:10pm 26.5 ESE 13 14 1017.2 - - - Partly cloudy 10 - - - -
28/09:00pm 26.5 SE 13 15 1017.1 - - - - 10 - - - -
28/08:50pm 26.5 ESE 13 15 1017.0 - - - - 10 - - - -
28/08:40pm 26.5 ESE 12 12 1016.9 - - - - 10 - - - -
28/08:30pm 26.4 ESE 13 13 1016.7 - - - - 10 - - - -
28/08:20pm 26.4 ESE 13 15 1016.5 - - - - 10 - - - -
28/08:10pm 26.4 ESE 11 14 1016.3 - - - - 10 - - - -
28/08:00pm 26.4 SE 14 15 1016.1 - - - - 10 - - - -
28/07:50pm 26.5 SE 14 17 1015.9 - - - - 10 - - - -
28/07:40pm 26.5 ESE 15 15 1015.8 - - - - 10 - - - -
28/07:30pm 26.5 SE 15 16 1015.7 - - - - 10 - - - -
28/07:20pm 26.6 ESE 15 17 1015.6 - - - - 10 - - - -
28/07:10pm 26.7 ESE 15 15 1015.5 - - - - 10 - - - -
28/07:00pm 26.7 ESE 15 16 1015.5 - - - - 10 - - - -
28/06:50pm 26.9 SE 15 16 1015.5 - - - - 10 - - - -
28/06:40pm 26.7 ESE 13 16 1015.4 - - - - 10 - - - -
28/06:30pm 27.5 SE 16 17 1015.3 - - - - 10 - - - -
28/06:20pm 27.3 SE 15 19 1015.2 - - - - 10 - - - -
28/06:10pm 27.9 SE 16 19 1015.1 - - - - 10 - - - -
28/06:00pm 27.8 ESE 16 17 1015.0 - - - - 10 - - - -
28/05:50pm 29.0 SE 16 18 1015.0 - - - - 10 - - - -
28/05:40pm 28.9 SE 15 17 1014.9 - - - - 10 - - - -
28/05:30pm 28.8 SE 15 16 1015.0 - - - - 10 - - - -
28/05:20pm 29.5 SE 15 18 1014.9 - - - - 10 - - - -
28/05:10pm 29.1 SE 15 15 1015.0 - - - - 10 - - - -
28/05:00pm 29.5 SE 15 16 1014.9 - - - - 10 - - - -
28/04:50pm 29.3 SE 15 15 1015.1 - - - - 10 - - - -
28/04:40pm 29.2 SE 14 16 1015.1 - - - - 10 - - - -
28/04:30pm 29.9 SE 14 15 1015.2 - - - - 10 - - - -
28/04:20pm 29.4 SE 13 13 1015.2 - - - - 10 - - - -
28/04:10pm 29.9 SE 14 13 1015.2 - - - - 10 - - - -
28/04:00pm 29.2 SE 15 17 1015.2 - - - - 10 - - - -
28/03:50pm 29.7 SE 17 17 1015.2 - - - - 10 - - - -
28/03:40pm 29.7 SE 16 18 1015.2 - - - Partly cloudy 10 - - - -
28/03:30pm 29.3 SE 18 18 1015.2 - - - - 10 - - - -
28/03:20pm 29.8 SE 17 21 1015.3 - - - Partly cloudy 10 - - - -
28/03:10pm 30.0 SE 14 16 1015.7 - - - Partly cloudy 10 - - - -
28/03:00pm 29.5 SE 14 16 1015.9 - - - Partly cloudy 10 - - - -
28/02:50pm 29.9 SE 14 16 1016.0 - - - Partly cloudy 10 - - - -
28/02:40pm 29.1 SE 14 16 1016.1 - - - Partly cloudy 10 - - - -
28/02:30pm 29.8 SE 14 17 1016.2 - - - Partly cloudy 10 - - - -
28/02:20pm 29.5 SE 14 18 1016.3 - - - Partly cloudy 10 - - - -
28/02:10pm 29.3 SE 15 16 1016.3 - - - Partly cloudy 10 - - - -
28/02:00pm 29.3 SE 13 16 1016.4 - - - Partly cloudy 10 - - - -
28/01:50pm 28.7 SE 15 13 1016.6 - - - Partly cloudy 10 - - - -
28/01:40pm 29.6 SE 15 17 1016.6 - - - Partly cloudy 10 - - - -
28/01:30pm 29.6 SE 14 15 1016.7 - - - - 10 - - - -
28/01:20pm 29.2 SE 15 16 1016.9 - - - - 10 - - - -
28/01:10pm 29.7 SE 15 15 1017.0 - - - - 10 - - - -
28/01:00pm 29.4 SE 15 16 1017.1 - - - - 10 - - - -
28/12:50pm 28.8 SE 15 16 1017.2 - - - - 10 - - - -
28/12:40pm 28.3 SE 14 17 1017.3 - - - - 10 - - - -
28/12:30pm 29.0 SE 15 16 1017.4 - - - - 10 - - - -
28/12:20pm 29.3 SE 15 16 1017.6 - - - - 10 - - - -
28/12:10pm 28.6 ESE 14 15 1017.8 - - - - 10 - - - -
28/12:00pm 28.4 ESE 14 15 1018.0 - - - - 10 - - - -
28/11:50am 28.3 SE 15 16 1018.0 - - - - 10 - - - -
28/11:40am 28.7 ESE 13 16 1018.1 - - - - 10 - - - -
28/11:30am 27.5 ESE 11 17 1018.1 - - - - 10 - - - -
28/11:20am 27.5 ESE 12 14 1018.2 - - - - 10 - - - -
28/11:10am 28.3 SE 16 18 1018.3 - - - - 10 - - - -
28/11:00am 28.6 ESE 15 18 1018.5 - - - - 10 - - - -
28/10:50am 28.5 SE 15 17 1018.5 - - - - 10 - - - -
28/10:40am 28.0 SE 16 17 1018.6 - - - - 10 - - - -
28/10:30am 28.0 ESE 16 14 1018.6 - - - - 10 - - - -
28/10:20am 27.9 ESE 16 18 1018.6 - - - - 10 - - - -
28/10:10am 28.0 ESE 14 17 1018.5 - - - - 10 - - - -
28/10:00am 28.0 ESE 16 18 1018.5 - - - - 10 - - - -
28/09:50am 27.5 ESE 14 17 1018.6 - - - - 10 - - - -
28/09:40am 27.5 ESE 16 17 1018.5 - - - - 10 - - - -
28/09:30am 27.5 ESE 12 17 1018.6 - - - - 10 - - - -
28/09:20am 27.8 SE 16 17 1018.6 - - - - 10 - - - -
28/09:10am 27.7 ESE 15 18 1018.6 - - - - 10 - - - -
28/09:00am 27.7 ESE 16 18 1018.4 - - - - 10 - - - -
28/08:50am 27.5 SE 15 17 1018.2 - - - - 10 - - - -
28/08:40am 27.3 SE 16 18 1018.2 - - - - 10 - - - -
28/08:30am 27.4 SE 16 18 1018.1 - - - - 10 - - - -
28/08:20am 27.2 SE 17 19 1018.0 - - - - 10 - - - -
28/08:10am 27.0 SE 16 16 1018.0 - - - - 10 - - - -
28/08:00am 26.5 ESE 16 20 1017.9 - - - Partly cloudy 10 - - - -
28/07:50am 26.7 SE 16 18 1017.9 - - - Partly cloudy 10 - - - -
28/07:40am 26.3 SE 16 19 1017.8 - - - Partly cloudy 10 - - - -
28/07:30am 26.3 ESE 14 17 1017.8 - - - Cloudy 10 - - - -
28/07:20am 26.3 SE 16 18 1017.7 - - - Cloudy 10 - - - -
28/07:10am 26.1 SE 15 16 1017.6 - - - Partly cloudy 10 - - - -
28/07:00am 26.1 SE 15 16 1017.6 - - - Partly cloudy 10 - - - -
28/06:50am 26.1 SE 17 15 1017.5 - - - Partly cloudy 10 - - - -
28/06:40am 26.2 SE 16 16 1017.4 - - - - 10 - - - -
28/06:30am 26.2 SE 16 17 1017.4 - - - - 10 - - - -
28/06:20am 26.3 SE 16 19 1017.3 - - - - 10 - - - -
28/06:10am 26.2 SE 16 17 1017.3 - - - - 10 - - - -
28/06:00am 26.3 SE 16 18 1017.3 - - - - 10 - - - -
28/05:50am 26.2 SE 16 18 1017.2 - - - - 10 - - - -
28/05:40am 26.2 SE 16 17 1017.3 - - - - 10 - - - -
28/05:30am 26.3 SE 15 17 1017.3 - - - - 10 - - - -

Other Formats:

Comma delimited format used in spreadsheet applications
http://www.bom.gov.au/fwo/IDD60701/IDD60701.95100.axf

JavaScript Object Notation format (JSON) in row-major order
http://www.bom.gov.au/fwo/IDD60701/IDD60701.95100.json